Ogden, UT

5:23 PM MST on February 06, 2016 (GMT -0700)
Ogden-Hinckley

Weather History for KOGD - January, 2014

Change the Weather History Date:

Sunday, January 19, 2014

  Actual Average Record
Temperature  
Mean Temperature 28 °F -  
Max Temperature 36 °F 37 °F 50 °F (1950)
Min Temperature 21 °F 19 °F -15 °F (1949)
Degree Days  
Heating Degree Days 36    
Moisture  
Dew Point 17 °F    
Average Humidity 66    
Maximum Humidity 82    
Minimum Humidity 54    
Precipitation  
Precipitation 0.00 in - - ()
Sea Level Pressure  
Sea Level Pressure 30.35 in    
Wind  
Wind Speed 4 mph (SSW)    
Max Wind Speed 8 mph    
Max Gust Speed -    
Visibility 9 miles    
Events      
Averages and records for this station are not official NWS values.
T = Trace of Precipitation, MM = Missing Value Source: NWS Daily Summary

Daily Weather History Graph

Daily Weather History Graph

Search for Another Location

Airport or City:

Trip Planner

Search our weather history database for the weather conditions in past years. The results will help you decide how hot, cold, wet, or windy it might be!

Date:

Astronomy

Jan. 19, 2014 Rise Set
Actual Time 7:49 AM MST 5:28 PM MST
Civil Twilight 7:19 AM MST 5:58 PM MST
Nautical Twilight 6:45 AM MST 6:32 PM MST
Astronomical Twilight 6:12 AM MST 7:05 PM MST
Moon 9:12 PM MST (1/19) 9:18 AM MST (1/19)
Length of Visible Light 10h 39m
Length of Day
9h 39m
Waning Gibbous, 89% of the Moon is Illuminated
Jan 19
Waning Gibbous
Jan 23
Last Quarter
Jan 30
New
Feb 6
First Quarter
Feb 14
Full

Hourly Weather History & Observations

Time (MST) Temp. Windchill Dew Point Humidity Pressure Visibility Wind Dir Wind Speed Gust Speed Precip Events Conditions
12:53 AM 21.9 °F 17.2 °F 17.1 °F 82% 30.40 in 5.0 mi WNW 3.5 mph - N/A   Haze
1:53 AM 21.9 °F 12.5 °F 12.9 °F 68% 30.39 in 10.0 mi South 8.1 mph - N/A   Clear
2:53 AM 23.0 °F 14.7 °F 14.0 °F 68% 30.39 in 10.0 mi South 6.9 mph - N/A   Clear
3:53 AM 21.9 °F 13.4 °F 14.0 °F 72% 30.39 in 10.0 mi South 6.9 mph - N/A   Clear
4:53 AM 21.9 °F 13.4 °F 12.9 °F 68% 30.38 in 10.0 mi SSE 6.9 mph - N/A   Clear
5:53 AM 21.0 °F 12.4 °F 12.9 °F 71% 30.38 in 10.0 mi South 6.9 mph - N/A   Clear
6:53 AM 23.0 °F - 12.9 °F 65% 30.39 in 10.0 mi Calm Calm - N/A   Clear
7:53 AM 21.9 °F - 14.0 °F 72% 30.40 in 8.0 mi Calm Calm - N/A   Clear
8:53 AM 25.0 °F 20.7 °F 12.9 °F 60% 30.41 in 10.0 mi Variable 3.5 mph - N/A   Clear
9:53 AM 26.1 °F 19.4 °F 15.1 °F 63% 30.42 in 10.0 mi SSE 5.8 mph - N/A   Clear
10:53 AM 30.9 °F 27.5 °F 18.0 °F 59% 30.40 in 10.0 mi South 3.5 mph - N/A   Clear
11:53 AM 35.1 °F 28.6 °F 19.9 °F 54% 30.37 in 10.0 mi South 8.1 mph - N/A   Clear
12:53 PM 34.0 °F 29.8 °F 21.9 °F 61% 30.35 in 7.0 mi NNW 4.6 mph - N/A   Clear
1:53 PM 36.0 °F 30.3 °F 23.0 °F 59% 30.32 in 6.0 mi WNW 6.9 mph - N/A   Haze
2:53 PM 35.1 °F 31.0 °F 23.0 °F 61% 30.31 in 6.0 mi NW 4.6 mph - N/A   Haze
3:53 PM 35.1 °F - 21.0 °F 57% 30.30 in 7.0 mi Calm Calm - N/A   Clear
4:53 PM 33.1 °F 28.7 °F 21.0 °F 61% 30.30 in 7.0 mi NW 4.6 mph - N/A   Clear
5:53 PM 28.0 °F - 19.0 °F 69% 30.32 in 8.0 mi Calm Calm - N/A   Clear
6:53 PM 28.0 °F - 18.0 °F 66% 30.30 in 8.0 mi Calm Calm - N/A   Clear
7:53 PM 28.9 °F - 17.1 °F 61% 30.30 in 8.0 mi Calm Calm - N/A   Clear
8:53 PM 25.0 °F - 16.0 °F 69% 30.32 in 10.0 mi Calm Calm - N/A   Clear
9:53 PM 25.0 °F - 17.1 °F 72% 30.32 in 7.0 mi Calm Calm - N/A   Clear
10:53 PM 24.1 °F - 16.0 °F 71% 30.32 in 10.0 mi Calm Calm - N/A   Clear
11:53 PM 21.9 °F 15.7 °F 14.0 °F 72% 30.31 in 10.0 mi South 4.6 mph - N/A   Clear